SWR155 VABB-LSZH

Flight info

Callsign SWR155
Flight time N/A
Altitude 36000
Route ANOLI2A ISRIS Z1 APANO G451 AAE Z8 VIKIT P628 RK G202 ZB L750 RANAH A846 BELUG/N0487F380 A846 ABDAN A909 RODAR N644 ADEKI DCT BADIR DCT LAGAS DCT NOLGA UN61 TBN UM11 CRM UL746 ODERO DCT LUGEB/N0481F400 DCT NERDI DCT EBORO DCT GOTAR DCT ERKIR DCT KPT L856 NEGRA
Aircraft A359/H-SDE2E3GHIJ3J4J5LM1ORWXY/LB1D1

Departure

Time 2026-05-05 21:44
Airport Chhatrapati Shivaji Maharaj International Airport (VABB)

Arrival

Time N/A
Airport Zürich Airport (LSZH)
Time Latitude Longitude Altitude Speed Heading
2026-05-05 21:33 19.09305 72.87084 31 ft 0 kts 33°
2026-05-05 21:35 19.09303 72.87083 31 ft 2 kts 33°
2026-05-05 21:35 19.09281 72.87068 31 ft 4 kts 33°
2026-05-05 21:35 19.09260 72.87053 31 ft 3 kts 34°
2026-05-05 21:35 19.09244 72.87034 30 ft 4 kts 79°
2026-05-05 21:36 19.09244 72.87007 31 ft 4 kts 105°
2026-05-05 21:36 19.09249 72.86990 31 ft 1 kts 110°
2026-05-05 21:38 19.09247 72.86998 31 ft 5 kts 109°
2026-05-05 21:38 19.09215 72.87057 31 ft 13 kts 131°
2026-05-05 21:39 19.09144 72.87112 32 ft 12 kts 123°
2026-05-05 21:39 19.09133 72.87203 31 ft 13 kts 92°
2026-05-05 21:39 19.09085 72.87276 31 ft 12 kts 140°
2026-05-05 21:39 19.09051 72.87358 32 ft 13 kts 100°
2026-05-05 21:40 19.09050 72.87454 31 ft 14 kts 89°
2026-05-05 21:40 19.09051 72.87559 31 ft 15 kts 90°
2026-05-05 21:40 19.09052 72.87670 31 ft 16 kts 89°
2026-05-05 21:40 19.09053 72.87786 31 ft 16 kts 91°
2026-05-05 21:41 19.09054 72.87906 31 ft 17 kts 89°
2026-05-05 21:41 19.09052 72.88018 31 ft 13 kts 107°
2026-05-05 21:41 19.08983 72.88050 30 ft 12 kts 177°
2026-05-05 21:41 19.08898 72.88032 29 ft 12 kts 229°
2026-05-05 21:42 19.08887 72.87949 30 ft 12 kts 269°
2026-05-05 21:42 19.08887 72.87928 30 ft 0 kts 270°
2026-05-05 21:43 19.08887 72.87901 30 ft 21 kts 270°
2026-05-05 21:43 19.08881 72.87502 31 ft 86 kts 269°
2026-05-05 21:44 19.08869 72.86662 32 ft 141 kts 269°
2026-05-05 21:44 19.08851 72.85465 178 ft 172 kts 269°
2026-05-05 21:44 19.08840 72.84200 813 ft 171 kts 271°
2026-05-05 21:44 19.08846 72.82944 1504 ft 169 kts 268°
2026-05-05 21:45 19.08827 72.81712 2090 ft 168 kts 269°
2026-05-05 21:45 19.08805 72.80465 2408 ft 172 kts 269°
2026-05-05 21:45 19.08784 72.79196 2771 ft 171 kts 269°
2026-05-05 21:45 19.08765 72.77917 3095 ft 175 kts 268°
2026-05-05 21:46 19.08748 72.76643 3470 ft 181 kts 270°
2026-05-05 21:46 19.08730 72.75336 3904 ft 177 kts 268°
2026-05-05 21:46 19.08852 72.74039 4205 ft 177 kts 292°
2026-05-05 21:46 19.09637 72.73095 4392 ft 176 kts 330°
2026-05-05 21:47 19.10824 72.72643 4555 ft 188 kts 346°
2026-05-05 21:47 19.12167 72.72358 4731 ft 201 kts 349°
2026-05-05 21:47 19.13584 72.72100 4927 ft 215 kts 349°
2026-05-05 21:47 19.15104 72.71832 5138 ft 228 kts 350°
2026-05-05 21:48 19.16713 72.71547 5343 ft 242 kts 350°
2026-05-05 21:48 19.18432 72.71238 5531 ft 259 kts 349°
2026-05-05 21:48 19.20252 72.70913 5832 ft 270 kts 350°
2026-05-05 21:48 19.22121 72.70572 6273 ft 274 kts 350°
2026-05-05 21:49 19.24018 72.70224 6728 ft 278 kts 349°
2026-05-05 21:49 19.25934 72.69876 7239 ft 281 kts 350°
2026-05-05 21:49 19.27871 72.69517 7729 ft 284 kts 350°
2026-05-05 21:49 19.29822 72.69158 8223 ft 285 kts 350°
2026-05-05 21:50 19.31791 72.68792 8664 ft 289 kts 350°
2026-05-05 21:50 19.33773 72.68421 9132 ft 291 kts 350°
2026-05-05 21:50 19.35779 72.68043 9594 ft 293 kts 350°
2026-05-05 21:50 19.37811 72.67659 10036 ft 299 kts 350°
2026-05-05 21:51 19.39908 72.67264 10266 ft 312 kts 349°
2026-05-05 21:51 19.42083 72.66854 10484 ft 323 kts 350°
2026-05-05 21:51 19.44338 72.66426 10696 ft 335 kts 349°
2026-05-05 21:51 19.46699 72.65982 10927 ft 351 kts 349°
2026-05-05 21:52 19.51629 72.65410 11278 ft 368 kts
2026-05-05 21:52 19.54224 72.65593 11464 ft 379 kts
2026-05-05 21:52 19.56885 72.65904 11668 ft 391 kts
2026-05-05 21:53 19.59606 72.66298 12012 ft 398 kts
2026-05-05 21:53 19.62354 72.66735 12456 ft 401 kts
2026-05-05 21:53 19.65116 72.67199 12893 ft 403 kts
2026-05-05 21:53 19.67884 72.67663 13319 ft 405 kts
2026-05-05 21:54 19.70641 72.68118 13754 ft 406 kts